When you browse on this site, cookies collect data to enhance your experience and personalize the content and advertising you see.
Visit our Privacy Policy to learn more. By continuing to use the site, you agree to this use of cookies and data.
  • In Czech Republic
  • List of Countries
  • For 7 days
  • Water Temperature
  • Weather Map
  • Weather Widgets
  • user-avatar
    Login

    Hourly Weather San Luis

    Today, 17 February, Monday

    Time Temperature Precipitation Wind Pressure Humidity
    00:00 +27°C° 0 mm 3 mps 691 mmHg 64%
    01:00 +27°C° 0 mm 3 mps 690 mmHg 65%
    02:00 +26°C° 0 mm 2 mps 690 mmHg 66%
    03:00 +26°C° 0.2 mm 2 mps 690 mmHg 70%
    04:00 +25°C° 0.2 mm 2 mps 690 mmHg 74%
    05:00 +25°C° 0.2 mm 1 mps 690 mmHg 78%
    06:00 +26°C° 0.3 mm 2 mps 690 mmHg 72%
    07:00 +28°C° 0.3 mm 2 mps 691 mmHg 66%
    08:00 +30°C° 0.3 mm 3 mps 691 mmHg 60%
    09:00 +32°C° 0.4 mm 4 mps 691 mmHg 54%
    10:00 +34°C° 0.4 mm 5 mps 692 mmHg 48%
    11:00 +36°C° 0.4 mm 6 mps 692 mmHg 42%
    12:00 +35°C° 0.7 mm 5 mps 692 mmHg 44%
    13:00 +35°C° 0.7 mm 5 mps 691 mmHg 46%
    14:00 +34°C° 0.7 mm 5 mps 691 mmHg 48%
    15:00 +34°C° 0.3 mm 6 mps 691 mmHg 46%
    16:00 +33°C° 0.3 mm 8 mps 691 mmHg 44%
    17:00 +33°C° 0.3 mm 9 mps 691 mmHg 42%
    18:00 +29°C° 0.1 mm 8 mps 692 mmHg 43%
    19:00 +27°C° 0.1 mm 8 mps 694 mmHg 45%
    20:00 +23°C° 0.1 mm 7 mps 695 mmHg 47%
    21:00 +23°C° 0 mm 7 mps 696 mmHg 43%
    22:00 +22°C° 0 mm 8 mps 697 mmHg 39%
    23:00 +22°C° 0 mm 8 mps 698 mmHg 35%

    Tomorrow, 18 February, Tuesday

    Time Temperature Precipitation Wind Pressure Humidity
    00:00 +21°C° 0 mm 7 mps 698 mmHg 37%
    01:00 +20°C° 0 mm 6 mps 698 mmHg 39%
    02:00 +19°C° 0 mm 4 mps 698 mmHg 40%
    03:00 +18°C° 0 mm 4 mps 698 mmHg 39%
    04:00 +18°C° 0 mm 4 mps 698 mmHg 37%
    05:00 +17°C° 0 mm 3 mps 699 mmHg 35%
    06:00 +19°C° 0 mm 3 mps 699 mmHg 31%
    07:00 +20°C° 0 mm 4 mps 700 mmHg 28%
    08:00 +22°C° 0 mm 4 mps 700 mmHg 24%
    09:00 +23°C° 0 mm 4 mps 701 mmHg 22%
    10:00 +26°C° 0 mm 3 mps 701 mmHg 20%
    11:00 +27°C° 0 mm 3 mps 701 mmHg 18%
    12:00 +28°C° 0 mm 3 mps 701 mmHg 17%
    13:00 +30°C° 0 mm 3 mps 700 mmHg 17%
    14:00 +31°C° 0 mm 2 mps 700 mmHg 17%
    15:00 +31°C° 0 mm 2 mps 699 mmHg 18%
    16:00 +31°C° 0 mm 3 mps 698 mmHg 18%
    17:00 +33°C° 0 mm 3 mps 697 mmHg 19%
    18:00 +29°C° 0 mm 3 mps 697 mmHg 24%
    19:00 +27°C° 0 mm 2 mps 696 mmHg 28%
    20:00 +25°C° 0 mm 2 mps 696 mmHg 33%
    21:00 +24°C° 0 mm 3 mps 696 mmHg 34%
    22:00 +22°C° 0 mm 3 mps 696 mmHg 35%
    23:00 +22°C° 0 mm 4 mps 696 mmHg 36%

    Day after tomorrow, 19 February, Wednesday

    Time Temperature Precipitation Wind Pressure Humidity
    00:00 +22°C° 0 mm 4 mps 696 mmHg 38%
    01:00 +22°C° 0 mm 5 mps 695 mmHg 40%
    02:00 +21°C° 0 mm 5 mps 695 mmHg 43%
    03:00 +21°C° 0 mm 5 mps 695 mmHg 42%
    04:00 +21°C° 0 mm 5 mps 695 mmHg 42%
    05:00 +21°C° 0 mm 4 mps 694 mmHg 41%
    06:00 +23°C° 0 mm 5 mps 695 mmHg 40%
    07:00 +25°C° 0 mm 5 mps 696 mmHg 38%
    08:00 +27°C° 0 mm 6 mps 696 mmHg 36%
    09:00 +28°C° 0 mm 5 mps 696 mmHg 34%
    10:00 +30°C° 0 mm 5 mps 696 mmHg 32%
    11:00 +32°C° 0 mm 5 mps 697 mmHg 29%
    12:00 +33°C° 0 mm 5 mps 696 mmHg 29%
    13:00 +34°C° 0 mm 4 mps 696 mmHg 28%
    14:00 +35°C° 0 mm 3 mps 696 mmHg 27%
    15:00 +35°C° 0 mm 3 mps 695 mmHg 27%
    16:00 +35°C° 0 mm 2 mps 695 mmHg 27%
    17:00 +35°C° 0 mm 2 mps 694 mmHg 27%
    18:00 +33°C° 0 mm 3 mps 694 mmHg 29%
    19:00 +30°C° 0 mm 3 mps 695 mmHg 31%
    20:00 +28°C° 0 mm 4 mps 695 mmHg 33%
    21:00 +26°C° 0 mm 5 mps 696 mmHg 32%
    22:00 +24°C° 0 mm 6 mps 697 mmHg 32%
    23:00 +23°C° 0 mm 8 mps 698 mmHg 31%

    20 February, Thursday

    Time Temperature Precipitation Wind Pressure Humidity
    00:00 +22°C° 0 mm 8 mps 698 mmHg 32%
    01:00 +21°C° 0 mm 9 mps 698 mmHg 34%
    02:00 +19°C° 0 mm 9 mps 698 mmHg 35%
    03:00 +19°C° 0 mm 9 mps 699 mmHg 35%
    04:00 +20°C° 0 mm 8 mps 699 mmHg 36%
    05:00 +18°C° 0 mm 8 mps 699 mmHg 37%
    06:00 +19°C° 0 mm 9 mps 700 mmHg 36%
    07:00 +21°C° 0 mm 9 mps 701 mmHg 35%
    08:00 +22°C° 0 mm 9 mps 702 mmHg 34%
    09:00 +23°C° 0 mm 10 mps 702 mmHg 32%
    10:00 +24°C° 0 mm 10 mps 703 mmHg 30%
    11:00 +26°C° 0 mm 11 mps 703 mmHg 29%
    12:00 +27°C° 0 mm 11 mps 703 mmHg 26%
    13:00 +28°C° 0 mm 11 mps 703 mmHg 23%
    14:00 +29°C° 0 mm 11 mps 703 mmHg 20%
    15:00 +28°C° 0 mm 11 mps 702 mmHg 20%
    16:00 +28°C° 0 mm 11 mps 701 mmHg 20%
    17:00 +27°C° 0 mm 11 mps 701 mmHg 20%
    18:00 +26°C° 0 mm 11 mps 701 mmHg 22%
    19:00 +23°C° 0 mm 10 mps 701 mmHg 24%
    20:00 +21°C° 0 mm 9 mps 702 mmHg 26%
    21:00 +21°C° 0 mm 9 mps 702 mmHg 26%
    22:00 +19°C° 0 mm 9 mps 703 mmHg 26%
    23:00 +19°C° 0 mm 9 mps 703 mmHg 27%

    21 February, Friday

    Time Temperature Precipitation Wind Pressure Humidity
    00:00 +20°C° 0 mm 8 mps 703 mmHg 27%
    01:00 +20°C° 0 mm 8 mps 703 mmHg 27%
    02:00 +20°C° 0 mm 7 mps 703 mmHg 27%
    09:00 +22°C° 0 mm 4 mps 704 mmHg 29%
    10:00 +25°C° 0 mm 3 mps 704 mmHg 28%
    11:00 +26°C° 0 mm 3 mps 704 mmHg 27%
    12:00 +27°C° 0 mm 3 mps 704 mmHg 27%
    13:00 +28°C° 0 mm 3 mps 703 mmHg 27%
    14:00 +29°C° 0 mm 4 mps 703 mmHg 26%
    15:00 +29°C° 0 mm 4 mps 702 mmHg 28%
    16:00 +29°C° 0 mm 4 mps 702 mmHg 29%
    17:00 +29°C° 0 mm 4 mps 701 mmHg 30%
    18:00 +27°C° 0 mm 4 mps 701 mmHg 34%
    19:00 +26°C° 0 mm 4 mps 701 mmHg 37%
    20:00 +23°C° 0 mm 4 mps 701 mmHg 41%
    21:00 +22°C° 0 mm 4 mps 701 mmHg 42%
    22:00 +21°C° 0 mm 4 mps 701 mmHg 43%
    23:00 +20°C° 0 mm 4 mps 701 mmHg 44%

    22 February, Saturday

    Time Temperature Precipitation Wind Pressure Humidity
    00:00 +20°C° 0 mm 3 mps 701 mmHg 46%
    01:00 +19°C° 0 mm 3 mps 700 mmHg 48%
    02:00 +19°C° 0 mm 3 mps 700 mmHg 50%
    03:00 +19°C° 0 mm 3 mps 700 mmHg 49%
    04:00 +18°C° 0 mm 4 mps 700 mmHg 49%
    05:00 +18°C° 0 mm 4 mps 699 mmHg 49%
    06:00 +20°C° 0 mm 5 mps 700 mmHg 45%
    07:00 +21°C° 0 mm 5 mps 700 mmHg 42%
    08:00 +23°C° 0 mm 5 mps 701 mmHg 38%
    09:00 +25°C° 0 mm 5 mps 700 mmHg 36%
    10:00 +27°C° 0 mm 5 mps 700 mmHg 34%
    11:00 +28°C° 0 mm 5 mps 700 mmHg 32%
    12:00 +29°C° 0 mm 5 mps 700 mmHg 31%
    13:00 +30°C° 0 mm 5 mps 699 mmHg 30%
    14:00 +32°C° 0 mm 5 mps 699 mmHg 29%
    15:00 +32°C° 0 mm 5 mps 698 mmHg 30%
    16:00 +32°C° 0 mm 5 mps 697 mmHg 30%
    17:00 +32°C° 0 mm 5 mps 697 mmHg 31%
    18:00 +29°C° 0 mm 5 mps 696 mmHg 35%
    19:00 +26°C° 0 mm 5 mps 696 mmHg 40%
    20:00 +23°C° 0 mm 5 mps 696 mmHg 45%
    21:00 +23°C° 0 mm 5 mps 696 mmHg 44%
    22:00 +23°C° 0 mm 6 mps 696 mmHg 44%
    23:00 +22°C° 0 mm 6 mps 697 mmHg 44%
    Show more